Location: Piotrkow Trybunalski
(51.4000°N, 19.6830°E)
Time: 07:08:04
(UTC+02:00)

STRAND 1 - Pass Details

Date: 28 February 2024
Orbit: 764 x 779 km, 98.4° (Epoch: 24 April)

Event Time Altitude Azimuth Distance (km) Brightness Sun altitude
Rises 05:32:24 0° 177° (S) 3,251 ? -9.7°
Reaches altitude 10° 05:34:46 10° 182° (S) 2,328 ? -9.4°
Maximum altitude 05:39:48 54° 260° (W) 945 ? -8.6°
Drops below altitude 10° 05:44:52 10° 338° (NNW) 2,344 ? -7.8°
Sets 05:47:15 0° 343° (NNW) 3,276 ? -7.4°
